This demonstration page uses our WeatherBlox Daily Observations layout. Learn more.

Left ArrowRight Arrow

34.74481, -87.66753

Hourly Observations for February 17, 2018

Temp ( °F °C ) Dew Point ( °F °C ) Humidity (%) Winds ( mph kmh ) Pressure ( in mb ) Visibility ( mi km ) Precip ( " mm )
12:53 am 00:53 Cloudy 46 7.8 39 3.9 77 77 ENE 7 11 30.19 1022 7 11 0.00 0.00
1:27 am 01:27 Cloudy 46 7.8 39 3.9 77 77 E 7 11 30.18 1022 7 11 0.00 0.00
1:53 am 01:53 Cloudy 46 7.8 39 3.9 77 77 E 7 11 30.16 1021 7 11 0.00 0.00
2:53 am 02:53 Cloudy with Haze 46 7.8 40 4.4 79 79 E 9 15 30.15 1021 6 10 0.00 0.00
3:53 am 03:53 Cloudy with Haze 46 7.8 40 4.4 79 79 ENE 7 11 30.13 1020 6 10 0.00 0.00
4:34 am 04:34 Cloudy with Haze 45 7.2 40 4.4 83 83 E 7 11 30.12 1020 6 10 0.00 0.00
4:53 am 04:53 Cloudy with Mist and Fog 45 7.2 41 5 86 86 E 6 9 30.11 1020 5 8 0.00 0.00
5:53 am 05:53 Cloudy with Haze 46 7.8 41 5 83 83 ESE 7 11 30.09 1019 5 8 0.00 0.00
6:17 am 06:17 Cloudy with Haze 46 7.8 41 5 83 83 ESE 9 15 30.06 1018 5 8 0.00 0.00
6:44 am 06:44 Cloudy with Mist and Fog 46 7.8 42 5.6 86 86 ESE 6 9 30.06 1018 5 8 0.00 0.00
6:53 am 06:53 Cloudy with Haze 46 7.8 41 5 83 83 ESE 10 17 30.06 1018 4 6 0.00 0.00
7:13 am 07:13 Cloudy with Mist and Fog 46 7.8 42 5.6 86 86 ESE 5 7 30.06 1018 3 5 0.00 0.00
7:53 am 07:53 Cloudy with Mist and Fog 47 8.3 43 6.1 86 86 SE 6 9 30.05 1018 4 6 0.00 0.00
8:35 am 08:35 Cloudy with Mist and Fog 48 8.9 44 6.7 86 86 SSE 8 13 30.03 1017 3 4 0.00 0.00
8:53 am 08:53 Cloudy with Light Rain 48 8.9 45 7.2 89 89 S 6 9 30.05 1018 3 5 0.00 0.03
9:17 am 09:17 Cloudy with Light Rain 49 9.4 45 7.2 86 86 S 6 9 30.06 1018 3 4 0.01 0.25
9:26 am 09:26 Cloudy with Light Rain 49 9.4 46 7.8 90 90 S 7 11 30.03 1017 4 6 0.01 0.25
9:53 am 09:53 Cloudy with Mist and Fog 51 10.6 48 8.9 89 89 S 7 11 30.04 1017 6 10 0.01 0.25
10:53 am 10:53 Cloudy 57 13.9 53 11.7 87 87 SW 14 22 30.05 1018 10 16 0.00 0.00
11:36 am 11:36 Cloudy with Rain 57 13.9 53 11.7 87 87 WNW 21 33 30.09 1019 3 4 0.01 0.25
11:53 am 11:53 Cloudy with Light Rain 51 10.6 48 8.9 89 89 NNW 15 24 30.11 1020 3 5 0.02 0.51
12:17 pm 12:17 Cloudy with Light Rain 48 8.9 44 6.7 86 86 NNW 7 11 30.09 1019 3 4 0.01 0.25
12:24 pm 12:24 Cloudy with Light Rain 48 8.9 45 7.2 89 89 N 3 6 30.09 1019 7 11 0.01 0.25
12:46 pm 12:46 Cloudy with Light Rain 49 9.4 45 7.2 86 86 NNW 3 6 30.09 1019 10 16 0.01 0.25
12:53 pm 12:53 Cloudy with Light Rain 49 9.4 45 7.2 86 86 N 5 7 30.08 1019 10 16 0.01 0.25
1:03 pm 13:03 Cloudy 49 9.4 44 6.7 83 83 N 5 7 30.09 1019 10 16 0.00 0.03
1:21 pm 13:21 Cloudy 49 9.4 44 6.7 83 83 N 3 6 30.09 1019 10 16 0.00 0.03
1:53 pm 13:53 Cloudy with Light Rain 48 8.9 44 6.7 86 86 NW 10 17 30.11 1020 7 11 0.01 0.25
2:13 pm 14:13 Cloudy with Rain 47 8.3 44 6.7 90 90 W 5 7 30.09 1019 2 3 0.03 0.76
2:18 pm 14:18 Cloudy with Light Rain 47 8.3 44 6.7 90 90 W 5 7 30.09 1019 3 5 0.04 1.02
2:30 pm 14:30 Cloudy with Light Rain 47 8.3 44 6.7 90 90 WSW 3 6 30.09 1019 4 6 0.04 1.02
2:45 pm 14:45 Cloudy with Rain 47 8.3 44 6.7 90 90 Calm 30.09 1019 3 4 0.06 1.52
2:53 pm 14:53 Cloudy with Light Rain 47 8.3 44 6.7 90 90 WSW 3 6 30.10 1019 3 5 0.07 1.78
3:02 pm 15:02 Cloudy with Light Rain 48 8.9 45 7.2 89 89 undefined N/A 30.09 1019 2 3 0.01 0.25
3:11 pm 15:11 Cloudy with Rain 48 8.9 45 7.2 89 89 SSW 6 9 30.09 1019 3 5 0.03 0.76
3:53 pm 15:53 Cloudy with Rain 48 8.9 45 7.2 89 89 W 5 7 30.11 1020 3 4 0.11 2.79
4:02 pm 16:02 Cloudy with Rain 48 8.9 45 7.2 89 89 WSW 3 6 30.12 1020 3 5 0.02 0.51
4:48 pm 16:48 Cloudy with Light Rain 48 9 46 8 94 94 WNW 5 7 30.12 1020 9 14 0.08 2.03
4:53 pm 16:53 Cloudy with Light Rain 49 9.4 46 7.8 90 90 WNW 5 7 30.13 1020 10 16 0.08 2.03
5:14 pm 17:14 Cloudy with Rain 49 9.4 46 7.8 90 90 WNW 6 9 30.12 1020 8 13 0.00 0.03
5:53 pm 17:53 Cloudy 49 9.4 46 7.8 90 90 WNW 10 17 30.16 1021 10 16 0.01 0.25
6:53 pm 18:53 Cloudy 48 8.9 44 6.7 86 86 NW 9 15 30.19 1022 10 16 0.00 0.00
7:13 pm 19:13 Cloudy 48 8.9 44 6.7 86 86 NW 9 15 30.21 1023 10 16 0.00 0.00
8:35 pm 20:35 Cloudy 48 8.9 44 6.7 86 86 NNW 3 6 30.21 1023 10 16 0.00 0.00
8:53 pm 20:53 Cloudy 48 8.9 43 6.1 83 83 NNW 3 6 30.23 1024 10 16 0.00 0.00
9:53 pm 21:53 Cloudy 48 8.9 43 6.1 83 83 NNW 7 11 30.24 1024 10 16 0.00 0.00
10:53 pm 22:53 Cloudy 48 8.9 43 6.1 83 83 N 5 7 30.24 1024 10 16 0.00 0.00
11:02 pm 23:02 Cloudy 48 8.9 43 6.1 83 83 N 7 11 30.24 1024 10 16 0.00 0.00
11:53 pm 23:53 Cloudy 48 8.9 41 5 77 77 NNE 8 13 30.25 1024 10 16 0.00 0.00

Powered by AerisWeather